Location: Boston
(42.3580°N, 71.0600°W)
Time: 21:33:51
(UTC-05:00)

Vanguard 2 - Visible Passes

Search period start: 13 December 2017 00:00
Search period end: 23 December 2017 00:00
Orbit: 553 x 2939 km, 32.9° (Epoch: 13 December)

Date Brightness Start Highest point End Pass type
(mag) Time Alt. Az. Time Alt. Az. Time Alt. Az.
13 Dec 8.8 18:18:17 10° WSW 18:21:46 21° SSW 18:23:05 18° SSE visible
14 Dec 9.1 18:36:35 10° WSW 18:39:36 17° SSW 18:40:23 17° S visible
15 Dec 9.2 16:44:41 10° WSW 16:49:59 29° S 16:53:52 10° SE visible
15 Dec 9.5 18:55:14 10° SW 18:57:22 13° SSW 18:57:45 13° SSW visible
16 Dec 9.3 17:02:48 10° WSW 17:07:51 27° SSW 17:11:39 10° SE visible
17 Dec 9.5 17:21:01 10° WSW 17:25:41 24° SSW 17:29:16 10° SE visible
18 Dec 9.6 17:39:24 10° WSW 17:43:26 19° SSW 17:46:40 10° SSE visible
19 Dec 9.8 17:58:06 10° WSW 18:01:07 15° SSW 18:03:40 10° S visible
20 Dec 10.4 18:18:17 10° SW 18:18:43 10° SW 18:19:07 10° SSW visible
22 Dec 10.0 16:41:16 10° WSW 16:47:03 23° SSW 16:51:14 10° SSE visible
